Tracking 31027 objects as of 19-Jul-2025
HD Live streaming from Space Station
objects crossing your sky now

FENGYUN 1C DEB

Track FENGYUN 1C DEB now!
10-day predictions


NORAD ID: 30358
Int'l Code: 1999-025ABV
Perigee: 775.0 km
Apogee: 893.7 km
Inclination: 98.6 °
Period: 101.4 minutes
Semi major axis: 7205 km
RCS: 0.037 m2 (small)
Launch date: May 10, 1999
Source: People's Republic of China (PRC)
Launch site: Taiyaun Space Center, China (TSC)

Note: This is SATELLITE DEBRIS
Your satellite tracking list
STARLINK-31611
Track 1 satellite(s)




NASA's NSSDC Master Catalog

Two Line Element Set (TLE):
1 30358U 99025ABV 25199.50104785  .00001922  00000-0  90221-3 0  9991
2 30358  98.5640  33.3800 0082355 265.3888 156.7407 14.19454546948287
Source of the keplerian elements: AFSPC